Tracking 19969 objects as of 13-Nov-2019
Live streaming from Space Station
objects crossing your sky now
Track the group of recently launched Starlink satellites

COSMOS 1275 DEB

Track COSMOS 1275 DEB now!
10-day predictions


NORAD ID: 13479
Int'l Code: 1981-053GB
Perigee: 649.4 km
Apogee: 699.0 km
Inclination: 82.9 °
Period: 98.1 minutes
Semi major axis: 7045 km
RCS: 0.052 m2 (small)
Launch date: June 4, 1981
Source: Commonwealth of Independent States (former USSR) (CIS)
Launch site: PLESETSK MISSILE AND SPACE COMPLEX (PKMTR)

Note: This is SATELLITE DEBRIS
aabbcc
Your satellite tracking list
Your tracking list is empty




NASA's NSSDC Master Catalog

Two Line Element Set (TLE):
1 13479U 81053FZ  19316.78499986 +.00001152 +00000-0 +19493-3 0  9999
2 13479 082.8951 248.0865 0035206 030.2155 330.1073 14.68135058958071
Source of the keplerian elements: AFSPC